Location: Domont
(49.0278°N, 2.3264°E)
Time: 11:15:39
(UTC+00:00)

SL-16 DEB - Visible Passes

Search period start: 17 August 2022 00:00
Search period end: 27 August 2022 00:00
Orbit: 777 x 974 km, 71.0° (Epoch: 16 August)

Date Brightness Start Highest point End Pass type
(mag) Time Alt. Az. Time Alt. Az. Time Alt. Az.
17 Aug ? 20:04:13 10° NW 20:10:18 49° WSW 20:16:10 10° S visible
18 Aug ? 19:59:35 10° NW 20:05:32 44° WSW 20:11:17 10° S visible
19 Aug ? 19:54:58 10° NW 20:00:47 39° WSW 20:06:22 10° S visible
20 Aug ? 19:50:22 10° NW 19:55:59 35° WSW 20:01:25 10° SSW visible
21 Aug ? 19:45:46 10° NW 19:51:12 31° WSW 19:56:26 10° SSW visible
22 Aug ? 19:41:13 10° NW 19:46:23 28° WSW 19:51:25 10° SSW visible
23 Aug ? 19:36:40 10° NW 19:41:34 25° W 19:46:20 10° SSW visible
24 Aug ? 19:32:10 10° NW 19:36:45 22° W 19:41:13 10° SSW visible
25 Aug ? 19:27:43 10° NW 19:31:56 19° W 19:36:02 10° SW visible
26 Aug ? 19:23:19 10° WNW 19:27:05 17° W 19:30:46 10° SW visible
